| time (UTC) | temp C | wind direction | speed KPH | gust KPH | rain 1hr cm | rain 24hr cm | rain mn cm | humidity % | barometer mb |
| 20260504110658 | 11 | 233 | 14.5 | 19.3 | 0.00 | 0.00 | 0.00 | 100 | 998.8 |
| 20260504110231 | 11 | 236 | 12.9 | 17.7 | 0.00 | 0.00 | 0.00 | 100 | 998.8 |
| 20260504081338 | 12 | 256 | 12.9 | 16.1 | 0.00 | 0.00 | 0.00 | 100 | 1000.4 |
| 20260504080658 | 13 | 257 | 12.9 | 17.7 | 0.00 | 0.00 | 0.00 | 100 | 1000.5 |
| 20260504070229 | 13 | 254 | 12.9 | 20.9 | 0.00 | 0.00 | 0.00 | 100 | 1000.6 |
| 20260504050658 | 14 | 253 | 12.9 | 19.3 | 0.00 | 0.00 | 0.00 | 100 | 1001.6 |
| 20260504050230 | 14 | 253 | 12.9 | 17.7 | 0.00 | 0.00 | 0.00 | 100 | 1001.6 |
| 20260504045338 | 14 | 248 | 11.3 | 16.1 | 0.00 | 0.00 | 0.00 | 100 | 1001.6 |
| 20260504044911 | 14 | 241 | 9.7 | 14.5 | 0.00 | 0.00 | 0.00 | 100 | 1001.6 |
| 20260504044018 | 14 | 236 | 11.3 | 14.5 | 0.00 | 0.00 | 0.00 | 100 | 1001.6 |
| 20260504043338 | 14 | 238 | 9.7 | 16.1 | 0.00 | 0.00 | 0.00 | 100 | 1001.6 |
| 20260504042658 | 14 | 238 | 11.3 | 16.1 | 0.00 | 0.00 | 0.00 | 100 | 1001.7 |
| 20260504042018 | 14 | 236 | 11.3 | 14.5 | 0.00 | 0.00 | 0.00 | 100 | 1001.7 |
| 20260504041338 | 14 | 229 | 11.3 | 14.5 | 0.00 | 0.00 | 0.00 | 100 | 1001.7 |
| 20260504040658 | 14 | 234 | 11.3 | 14.5 | 0.00 | 0.00 | 0.00 | 100 | 1001.8 |
| 20260504040018 | 15 | 232 | 9.7 | 16.1 | 0.00 | 0.00 | 0.00 | 100 | 1001.8 |
| 20260504035338 | 15 | 230 | 11.3 | 14.5 | 0.00 | 0.00 | 0.00 | 100 | 1001.8 |
| 20260504034912 | 15 | 233 | 11.3 | 14.5 | 0.00 | 0.00 | 0.00 | 100 | 1001.9 |
| 20260504034018 | 15 | 232 | 9.7 | 14.5 | 0.00 | 0.00 | 0.00 | 100 | 1001.9 |
| 20260504033548 | 15 | 227 | 11.3 | 14.5 | 0.00 | 0.00 | 0.00 | 100 | 1002.0 |
| 20260504032658 | 15 | 229 | 9.7 | 14.5 | 0.00 | 0.00 | 0.00 | 100 | 1002.0 |
| 20260504032018 | 15 | 232 | 11.3 | 12.9 | 0.00 | 0.00 | 0.00 | 100 | 1002.0 |
| 20260504031338 | 15 | 239 | 11.3 | 14.5 | 0.00 | 0.00 | 0.00 | 100 | 1002.1 |
| 20260504030658 | 15 | 236 | 11.3 | 14.5 | 0.00 | 0.00 | 0.00 | 100 | 1002.1 |
| 20260504030018 | 15 | 239 | 9.7 | 12.9 | 0.00 | 0.00 | 0.00 | 100 | 1002.1 |
| 20260504025338 | 15 | 227 | 8.0 | 12.9 | 0.00 | 0.00 | 0.00 | 100 | 1002.0 |
| 20260504024658 | 15 | 232 | 11.3 | 12.9 | 0.00 | 0.00 | 0.00 | 100 | 1002.2 |
| 20260504024018 | 15 | 231 | 8.0 | 11.3 | 0.00 | 0.00 | 0.00 | 100 | 1002.1 |
| 20260504023549 | 15 | 227 | 9.7 | 11.3 | 0.00 | 0.00 | 0.00 | 100 | 1002.1 |
| 20260504022658 | 14 | 228 | 8.0 | 11.3 | 0.00 | 0.00 | 0.00 | 100 | 1001.9 |
| 20260504022018 | 14 | 227 | 9.7 | 11.3 | 0.00 | 0.00 | 0.00 | 100 | 1001.9 |
| 20260504021338 | 14 | 223 | 8.0 | 12.9 | 0.00 | 0.00 | 0.00 | 100 | 1001.8 |
| 20260504020658 | 14 | 223 | 8.0 | 12.9 | 0.00 | 0.00 | 0.00 | 100 | 1001.7 |
| 20260504020018 | 13 | 222 | 8.0 | 12.9 | 0.00 | 0.00 | 0.00 | 100 | 1001.7 |
| 20260504015338 | 13 | 217 | 8.0 | 14.5 | 0.00 | 0.00 | 0.00 | 100 | 1001.6 |
| 20260504014658 | 13 | 210 | 9.7 | 16.1 | 0.00 | 0.00 | 0.00 | 100 | 1001.5 |
| 20260504014018 | 13 | 200 | 12.9 | 17.7 | 0.00 | 0.00 | 0.00 | 100 | 1001.4 |
| 20260504013338 | 13 | 197 | 11.3 | 17.7 | 0.00 | 0.00 | 0.00 | 100 | 1001.3 |
| 20260504012658 | 13 | 196 | 11.3 | 17.7 | 0.00 | 0.00 | 0.00 | 100 | 1001.3 |
| 20260504012018 | 13 | 195 | 11.3 | 17.7 | 0.00 | 0.00 | 0.00 | 100 | 1001.4 |
| 20260504011551 | 13 | 195 | 11.3 | 19.3 | 0.00 | 0.00 | 0.00 | 100 | 1001.3 |
| 20260504010912 | 13 | 196 | 11.3 | 19.3 | 0.00 | 0.00 | 0.00 | 100 | 1001.3 |
| 20260504010018 | 13 | 186 | 12.9 | 20.9 | 0.00 | 0.00 | 0.00 | 100 | 1001.3 |
| 20260504005338 | 13 | 192 | 14.5 | 20.9 | 0.00 | 0.00 | 0.00 | 100 | 1001.3 |
| 20260504004909 | 13 | 188 | 12.9 | 20.9 | 0.00 | 0.00 | 0.00 | 100 | 1001.3 |
| 20260504004018 | 13 | 186 | 14.5 | 20.9 | 0.00 | 0.00 | 0.00 | 100 | 1001.2 |
| 20260504003338 | 13 | 186 | 14.5 | 20.9 | 0.00 | 0.00 | 0.00 | 100 | 1001.4 |
| 20260504002658 | 13 | 181 | 14.5 | 20.9 | 0.00 | 0.00 | 0.00 | 100 | 1001.3 |
| 20260504002231 | 13 | 186 | 16.1 | 22.5 | 0.00 | 0.00 | 0.00 | 100 | 1001.3 |
| 20260504001338 | 13 | 184 | 17.7 | 22.5 | 0.00 | 0.00 | 0.00 | 100 | 1001.3 |
| 20260504000658 | 13 | 175 | 12.9 | 20.9 | 0.00 | 0.00 | 0.00 | 100 | 1001.4 |
| 20260504000228 | 13 | 169 | 12.9 | 20.9 | 0.00 | 0.00 | 0.00 | 100 | 1001.3 |
| 20260503235338 | 13 | 172 | 14.5 | 22.5 | 0.00 | 0.00 | 0.00 | 100 | 1001.3 |
| 20260503234909 | 13 | 173 | 16.1 | 22.5 | 0.00 | 0.00 | 0.00 | 100 | 1001.3 |
| 20260503234230 | 14 | 169 | 14.5 | 24.1 | 0.00 | 0.00 | 0.00 | 100 | 1001.3 |
| 20260503233338 | 15 | 164 | 16.1 | 24.1 | 0.00 | 0.00 | 0.00 | 100 | 1000.9 |
| 20260503232658 | 16 | 163 | 14.5 | 33.8 | 0.00 | 0.00 | 0.00 | 100 | 1000.8 |
| 20260503232018 | 19 | 213 | 20.9 | 33.8 | 0.00 | 0.00 | 0.00 | 100 | 1001.3 |
| 20260503231338 | 19 | 235 | 20.9 | 43.5 | 0.00 | 0.00 | 0.00 | 100 | 1001.5 |
| 20260503230658 | 19 | 224 | 20.9 | 37.0 | 0.00 | 0.00 | 0.00 | 100 | 1001.6 |
| 20260503230018 | 19 | 233 | 20.9 | 40.2 | 0.00 | 0.00 | 0.00 | 100 | 1001.6 |
| 20260503225338 | 19 | 250 | 22.5 | 37.0 | 0.00 | 0.00 | 0.00 | 100 | 1001.8 |
| 20260503224658 | 19 | 241 | 16.1 | 41.8 | 0.00 | 0.00 | 0.00 | 100 | 1002.0 |
| 20260503224018 | 19 | 239 | 25.7 | 41.8 | 0.00 | 0.00 | 0.00 | 100 | 1001.9 |
| 20260503223338 | 19 | 220 | 20.9 | 45.1 | 0.00 | 0.00 | 0.00 | 100 | 1001.9 |
| 20260503222658 | 19 | 234 | 24.1 | 45.1 | 0.00 | 0.00 | 0.00 | 100 | 1001.8 |
| 20260503222018 | 19 | 221 | 24.1 | 49.9 | 0.00 | 0.00 | 0.00 | 100 | 1001.8 |
| 20260503221338 | 19 | 230 | 22.5 | 40.2 | 0.00 | 0.00 | 0.00 | 100 | 1001.8 |
| 20260503220658 | 19 | 213 | 22.5 | 43.5 | 0.00 | 0.00 | 0.00 | 100 | 1001.9 |
| 20260503220018 | 19 | 223 | 22.5 | 41.8 | 0.00 | 0.00 | 0.00 | 100 | 1002.0 |
| 20260503215338 | 18 | 215 | 29.0 | 43.5 | 0.00 | 0.00 | 0.00 | 100 | 1001.8 |
| 20260503214658 | 18 | 207 | 20.9 | 41.8 | 0.00 | 0.00 | 0.00 | 100 | 1001.8 |
| 20260503214018 | 18 | 222 | 25.7 | 43.5 | 0.00 | 0.00 | 0.00 | 100 | 1001.9 |
| 20260503213338 | 19 | 244 | 19.3 | 41.8 | 0.00 | 0.00 | 0.00 | 100 | 1002.3 |
| 20260503212658 | 18 | 256 | 25.7 | 48.3 | 0.00 | 0.00 | 0.00 | 100 | 1002.2 |
| 20260503212018 | 18 | 236 | 35.4 | 49.9 | 0.00 | 0.00 | 0.00 | 100 | 1002.0 |
| 20260503211338 | 18 | 249 | 27.4 | 45.1 | 0.00 | 0.00 | 0.00 | 100 | 1002.2 |
| 20260503210658 | 18 | 253 | 22.5 | 48.3 | 0.00 | 0.00 | 0.00 | 100 | 1002.5 |
| 20260503210018 | 18 | 218 | 27.4 | 48.3 | 0.00 | 0.00 | 0.00 | 100 | 1002.4 |
| 20260503205338 | 18 | 230 | 20.9 | 46.7 | 0.00 | 0.00 | 0.00 | 100 | 1002.6 |
| 20260503204658 | 18 | 232 | 24.1 | 48.3 | 0.00 | 0.00 | 0.00 | 100 | 1002.5 |
| 20260503204018 | 18 | 228 | 27.4 | 49.9 | 0.00 | 0.00 | 0.00 | 100 | 1002.7 |
| 20260503203338 | 18 | 221 | 20.9 | 51.5 | 0.00 | 0.00 | 0.00 | 100 | 1003.1 |
| 20260503202658 | 18 | 247 | 22.5 | 48.3 | 0.00 | 0.00 | 0.00 | 100 | 1003.2 |
| 20260503202018 | 18 | 223 | 27.4 | 51.5 | 0.00 | 0.00 | 0.00 | 100 | 1002.9 |
| 20260503201338 | 17 | 214 | 30.6 | 49.9 | 0.00 | 0.00 | 0.00 | 100 | 1002.8 |
| 20260503200658 | 18 | 220 | 29.0 | 54.7 | 0.00 | 0.00 | 0.00 | 100 | 1003.2 |
| 20260503200018 | 18 | 237 | 27.4 | 54.7 | 0.00 | 0.00 | 0.00 | 100 | 1003.4 |
| 20260503195338 | 18 | 224 | 22.5 | 45.1 | 0.00 | 0.00 | 0.00 | 100 | 1003.8 |
| 20260503194658 | 18 | 216 | 27.4 | 51.5 | 0.00 | 0.00 | 0.00 | 100 | 1003.7 |
| 20260503194018 | 17 | 237 | 35.4 | 49.9 | 0.00 | 0.00 | 0.00 | 100 | 1003.4 |
| 20260503193338 | 17 | 203 | 29.0 | 49.9 | 0.00 | 0.00 | 0.00 | 100 | 1003.9 |
| 20260503192658 | 17 | 197 | 25.7 | 45.1 | 0.00 | 0.00 | 0.00 | 100 | 1003.7 |
| 20260503192018 | 18 | 220 | 20.9 | 49.9 | 0.00 | 0.00 | 0.00 | 100 | 1004.2 |
| 20260503191338 | 17 | 244 | 32.2 | 61.2 | 0.00 | 0.00 | 0.00 | 100 | 1004.1 |
| 20260503190658 | 17 | 229 | 33.8 | 61.2 | 0.00 | 0.00 | 0.00 | 100 | 1004.1 |
| 20260503190018 | 17 | 230 | 32.2 | 49.9 | 0.00 | 0.00 | 0.00 | 100 | 1004.3 |
| 20260503185338 | 17 | 245 | 27.4 | 51.5 | 0.00 | 0.00 | 0.00 | 100 | 1004.4 |
| 20260503184658 | 17 | 216 | 30.6 | 53.1 | 0.00 | 0.00 | 0.00 | 100 | 1004.4 |
| 20260503184018 | 17 | 242 | 32.2 | 57.9 | 0.00 | 0.00 | 0.00 | 100 | 1004.4 |
| 20260503183338 | 16 | 226 | 35.4 | 57.9 | 0.00 | 0.00 | 0.00 | 100 | 1004.5 |
| 20260503182658 | 16 | 216 | 30.6 | 56.3 | 0.00 | 0.00 | 0.00 | 100 | 1004.6 |
| 20260503182018 | 16 | 205 | 29.0 | 56.3 | 0.00 | 0.00 | 0.00 | 100 | 1004.7 |
| 20260503181338 | 16 | 224 | 30.6 | 57.9 | 0.00 | 0.00 | 0.00 | 100 | 1004.9 |
| 20260503180658 | 16 | 219 | 32.2 | 57.9 | 0.00 | 0.00 | 0.00 | 100 | 1005.0 |
| 20260503180227 | 16 | 231 | 35.4 | 56.3 | 0.00 | 0.00 | 0.00 | 100 | 1005.1 |
| 20260503175338 | 15 | 213 | 33.8 | 59.5 | 0.00 | 0.00 | 0.00 | 100 | 1005.0 |
| 20260503174658 | 15 | 248 | 33.8 | 46.7 | 0.00 | 0.00 | 0.00 | 100 | 1005.2 |
| 20260503174018 | 15 | 235 | 32.2 | 57.9 | 0.00 | 0.00 | 0.00 | 100 | 1005.2 |
| 20260503173338 | 15 | 232 | 33.8 | 57.9 | 0.00 | 0.00 | 0.00 | 100 | 1005.2 |
| 20260503172658 | 16 | 222 | 22.5 | 56.3 | 0.00 | 0.00 | 0.00 | 100 | 1005.9 |
| 20260503172018 | 15 | 230 | 35.4 | 57.9 | 0.00 | 0.00 | 0.00 | 100 | 1005.4 |
| 20260503171338 | 15 | 214 | 35.4 | 53.1 | 0.00 | 0.00 | 0.00 | 100 | 1005.4 |
| 20260503170658 | 15 | 225 | 35.4 | 51.5 | 0.00 | 0.00 | 0.00 | 100 | 1005.4 |
| 20260503150909 | 13 | 238 | 29.0 | 43.5 | 0.00 | 0.00 | 0.00 | 100 | 1006.6 |
| 20260503131338 | 10 | 217 | 20.9 | 35.4 | 0.00 | 0.00 | 0.00 | 100 | 1007.2 |
| 20260503130910 | 10 | 216 | 20.9 | 33.8 | 0.00 | 0.00 | 0.00 | 100 | 1007.4 |